[[{"header":{"parameterUnit":"m.s-1","parameterCategory":1,"la1":30.2991,"la2":30.254,"lo1":-89.0895,"lo2":-89.0444,"dy":0.0017,"dx":0.0017,"nx":28,"ny":28,"refTime":"2025-06-23T03:00:00:Z","depth":0,"parameterNumber":2,"parameterNumberName":"U-component_of_WINDS"},"data":[0,0,0,0,0,0,0,0,0,0,0,0,0,0,0,0,0,0,0,0,0,0,0,0,0,0,0,0,0,0,0,0,0,0,0,0,0,0,0,0,0,0,0,0,0,0,0,0,0,0,0,0,0,0,0,0,0,0,-1.3144,-1.3144,0,-1.3125,-1.3125,-1.3125,-1.307,-1.3069,-1.3068,-1.3066,-1.3049,-1.3049,-1.305,0,0,0,0,0,0,0,0,0,0,0,0,0,-1.3135,-1.3136,-1.3144,-1.3144,-1.3144,-1.3125,-1.3125,-1.3125,-1.307,-1.3069,-1.3067,-1.3066,-1.3049,-1.3049,-1.305,0,0,0,0,0,0,0,0,0,0,0,0,0,-1.313,-1.3136,-1.3144,-1.3114,-1.3111,-1.3125,-1.3125,-1.3124,-1.307,-1.3069,-1.3067,-1.3065,-1.3048,-1.3049,-1.305,-1.3092,0,0,-1.3053,-1.3054,0,0,0,0,0,0,0,0,-1.313,-1.313,-1.3119,-1.3116,-1.3113,-1.3098,-1.3115,-1.3114,-1.3071,-1.3086,-1.3066,-1.3064,-1.3067,-1.3066,-1.3066,-1.3091,-1.3091,-1.3053,-1.3054,-1.3054,-1.3055,0,0,0,0,0,0,0,-1.3131,-1.3131,-1.3137,-1.3119,-1.3115,-1.3102,-1.31,-1.3115,-1.3087,-1.3085,-1.3081,-1.3079,-1.3065,-1.3066,-1.3066,-1.309,-1.3053,-1.3054,-1.3055,-1.3055,-1.3149,-1.3151,0,0,0,0,0,0,-1.3135,-1.3132,-1.3137,-1.3136,-1.3117,-1.3104,-1.3101,-1.3105,-1.3086,-1.3082,-1.308,-1.3076,-1.3065,-1.3065,-1.3065,-1.3113,-1.3054,-1.3055,-1.3056,-1.3147,-1.3149,-1.3151,0,0,0,0,0,0,-1.3135,-1.3136,-1.3138,-1.3133,-1.3132,-1.3106,-1.3111,-1.3105,-1.3106,-1.3083,-1.3078,-1.3086,-1.3063,-1.3064,-1.3086,-1.3111,-1.3056,-1.3056,-1.3145,-1.3148,-1.315,-1.3209,0,0,0,0,0,0,-1.3135,-1.3137,-1.3152,-1.3133,-1.3132,-1.3159,-1.3112,-1.3106,-1.3108,-1.3102,-1.3087,-1.3083,-1.3062,-1.3085,-1.3087,-1.3112,-1.3057,-1.3142,-1.3146,-1.3149,-1.3205,-1.3214,-1.3221,0,0,0,0,0,-1.3135,-1.317,-1.3153,-1.3154,-1.3151,-1.316,-1.316,-1.3134,-1.311,-1.3125,-1.3111,-1.3084,-1.3108,-1.3087,-1.3089,-1.3115,-1.3141,-1.3145,-1.3149,-1.3201,-1.3212,-1.3221,0,0,0,0,0,0,-1.3192,-1.3167,-1.3148,-1.3177,-1.3171,-1.3151,-1.317,-1.3146,-1.3148,-1.3143,-1.3111,-1.3108,-1.3135,-1.3127,-1.3104,-1.3155,-1.312,-1.3125,-1.3159,-1.3169,-1.3177,-1.3179,-1.3058,0,0,0,0,0,-1.3208,-1.3217,-1.3195,-1.3223,-1.3221,-1.3196,-1.3199,-1.318,-1.3173,-1.317,-1.3157,-1.3152,-1.3158,-1.3163,-1.3168,-1.3203,-1.32,-1.3222,-1.3231,-1.3237,-1.3242,-1.3261,-1.3271,-1.3165,-1.3165,-1.3165,0,0,-1.3242,-1.3229,-1.3236,-1.3234,-1.3227,-1.3238,-1.3194,-1.3208,-1.3216,-1.3172,-1.3192,-1.3183,-1.3175,-1.3204,-1.3216,-1.3198,-1.327,-1.3243,-1.3249,-1.3249,-1.3266,-1.3276,-1.3285,-1.3168,-1.3168,-1.3167,0,0,-1.3308,-1.3299,-1.3321,-1.3315,-1.3305,-1.3288,-1.3294,-1.3277,-1.3269,-1.3288,-1.3256,-1.3265,-1.3277,-1.3273,-1.3272,-1.3337,-1.3312,-1.3339,-1.3383,-1.3401,-1.3409,-1.3417,-1.344,-1.3449,-1.3344,-1.3344,-1.3344,0,-1.335,-1.3365,-1.3336,-1.3351,-1.3351,-1.3312,-1.3335,-1.3331,-1.3323,-1.3325,-1.3304,-1.3318,-1.331,-1.3338,-1.3354,-1.3354,-1.336,-1.3341,-1.341,-1.3417,-1.3424,-1.3446,-1.3455,-1.3347,-1.3347,-1.3347,-1.3346,0,-1.3418,-1.3429,-1.3448,-1.3441,-1.3444,-1.3463,-1.3437,-1.3443,-1.3424,-1.3409,-1.343,-1.3419,-1.3421,-1.3426,-1.3407,-1.3451,-1.344,-1.3416,-1.338,-1.3437,-1.3458,-1.3466,-1.3352,-1.3351,-1.335,-1.3349,0,0,-1.352,-1.3496,-1.3504,-1.3501,-1.3487,-1.3495,-1.3512,-1.3513,-1.3519,-1.3515,-1.353,-1.3541,-1.3518,-1.3517,-1.3498,-1.3514,-1.3566,-1.3487,-1.3487,-1.3503,-1.3615,-1.3634,-1.3644,-1.355,-1.3551,-1.3553,-1.3616,0,-1.3583,-1.3611,-1.3585,-1.3619,-1.3628,-1.3591,-1.3607,-1.36,-1.3587,-1.3594,-1.358,-1.3588,-1.3557,-1.3557,-1.3571,-1.3557,-1.3589,-1.3552,-1.3564,-1.3564,-1.3567,-1.3654,-1.3674,-1.3734,-1.3623,-1.3624,-1.3625,0,-1.366,-1.3659,-1.3693,-1.3677,-1.368,-1.3694,-1.3693,-1.37,-1.3692,-1.3682,-1.3681,-1.3657,-1.3674,-1.3639,-1.3662,-1.3638,-1.3641,-1.3635,-1.3637,-1.3637,-1.3599,-1.3657,-1.3753,-1.3762,-1.3638,-1.3637,-1.3636,0,-1.3731,-1.3739,-1.376,-1.3758,-1.374,-1.3751,-1.3744,-1.3734,-1.3736,-1.3735,-1.3737,-1.3739,-1.374,-1.3742,-1.3719,-1.3696,-1.3746,-1.3709,-1.3738,-1.3739,-1.375,-1.375,-1.3848,-1.3752,-1.3752,-1.3752,-1.3752,0,-1.3804,-1.3827,-1.3792,-1.3805,-1.3829,-1.38,-1.3825,-1.3814,-1.3806,-1.3817,-1.3785,-1.3796,-1.3765,-1.3773,-1.3756,-1.3778,-1.3779,-1.3771,-1.3766,-1.3774,-1.3775,-1.3776,-1.3772,-1.3754,-1.3754,-1.3753,-1.3753,0,-1.3889,-1.3866,-1.3887,-1.3867,-1.3863,-1.3882,-1.3866,-1.3877,-1.3862,-1.3876,-1.3878,-1.3855,-1.3863,-1.384,-1.3845,-1.3833,-1.3865,-1.3853,-1.3868,-1.3864,-1.3895,-1.3893,-1.3997,-1.401,-1.3906,-1.3907,-1.3908,0,-1.3937,-1.3953,-1.3935,-1.394,-1.3935,-1.3943,-1.3945,-1.3917,-1.392,-1.3912,-1.3925,-1.393,-1.3933,-1.3948,-1.3931,-1.3935,-1.3923,-1.396,-1.3924,-1.3931,-1.3924,-1.3924,-1.3926,-1.3967,-1.3969,-1.397,-1.3971,0,-1.4025,-1.4013,-1.4017,-1.4017,-1.402,-1.4019,-1.4016,-1.4022,-1.3992,-1.3997,-1.4005,-1.4007,-1.4011,-1.4017,-1.4017,-1.401,-1.3986,-1.3982,-1.3989,-1.3997,-1.4005,-1.4002,-1.3889,-1.398,-1.3979,-1.3978,-1.3978,-1.3977,-1.4093,-1.4106,-1.4096,-1.4101,-1.4095,-1.4093,-1.4103,-1.4089,-1.4094,-1.4095,-1.4078,-1.4089,-1.4081,-1.4078,-1.4074,-1.4083,-1.4066,-1.4077,-1.4079,-1.4082,-1.4088,-1.4003,-1.4083,-1.4083,-1.4082,-1.4082,-1.4082,0,-1.4181,-1.4172,-1.4177,-1.4173,-1.4177,-1.4153,-1.4148,-1.4154,-1.4163,-1.4158,-1.4161,-1.4169,-1.4175,-1.4159,-1.4162,-1.4172,-1.4161,-1.4174,-1.4173,-1.4172,-1.4102,-1.4096,-1.4183,-1.4183,-1.4183,-1.4183,-1.4183,-1.4183,-1.4227,-1.4247,-1.4234,-1.4251,-1.4242,-1.4252,-1.4252,-1.4249,-1.4244,-1.4255,-1.4259,-1.4249,-1.4239,-1.4241,-1.4245,-1.424,-1.4243,-1.426,-1.4252,-1.4187,-1.4177,-1.4168,-1.4162,-1.4261,-1.4261,-1.4321,-1.4322,-1.4322]},{"header":{"parameterUnit":"m.s-1","parameterCategory":1,"la1":30.2991,"la2":30.254,"lo1":-89.0895,"lo2":-89.0444,"dy":0.0017,"dx":0.0017,"nx":28,"ny":28,"refTime":"2025-06-23T03:00:00:Z","depth":0,"parameterNumber":3,"parameterNumberName":"V-component_of_WINDS"},"data":[0,0,0,0,0,0,0,0,0,0,0,0,0,0,0,0,0,0,0,0,0,0,0,0,0,0,0,0,0,0,0,0,0,0,0,0,0,0,0,0,0,0,0,0,0,0,0,0,0,0,0,0,0,0,0,0,0,0,2.1236,2.1236,0,2.1224,2.1224,2.1224,2.1189,2.1188,2.1187,2.1186,2.1175,2.1175,2.1176,0,0,0,0,0,0,0,0,0,0,0,0,0,2.123,2.1231,2.1236,2.1236,2.1236,2.1224,2.1224,2.1224,2.1189,2.1188,2.1187,2.1186,2.1175,2.1175,2.1176,0,0,0,0,0,0,0,0,0,0,0,0,0,2.1227,2.1231,2.1236,2.1217,2.1215,2.1224,2.1224,2.1224,2.1189,2.1188,2.1187,2.1186,2.1174,2.1175,2.1176,2.1202,0,0,2.1177,2.1178,0,0,0,0,0,0,0,0,2.1227,2.1227,2.122,2.1218,2.1216,2.1207,2.1217,2.1216,2.1189,2.1199,2.1186,2.1185,2.1186,2.1186,2.1186,2.1202,2.1201,2.1177,2.1178,2.1178,2.1178,0,0,0,0,0,0,0,2.1227,2.1228,2.1231,2.122,2.1218,2.1209,2.1208,2.1217,2.1199,2.1198,2.1196,2.1195,2.1185,2.1186,2.1186,2.1201,2.1177,2.1178,2.1178,2.1179,2.1237,2.1238,0,0,0,0,0,0,2.123,2.1228,2.1232,2.1231,2.1219,2.121,2.1208,2.1211,2.1199,2.1196,2.1196,2.1193,2.1185,2.1185,2.1185,2.1215,2.1178,2.1179,2.1179,2.1236,2.1237,2.1239,0,0,0,0,0,0,2.123,2.1231,2.1232,2.1229,2.1228,2.1212,2.1215,2.1211,2.1212,2.1197,2.1194,2.1199,2.1184,2.1184,2.1198,2.1214,2.1179,2.1179,2.1235,2.1236,2.1238,2.1275,0,0,0,0,0,0,2.123,2.1231,2.1241,2.1229,2.1229,2.1245,2.1216,2.1212,2.1213,2.1209,2.12,2.1197,2.1183,2.1197,2.1199,2.1214,2.118,2.1233,2.1235,2.1238,2.1272,2.1278,2.1282,0,0,0,0,0,2.123,2.1252,2.1242,2.1242,2.124,2.1246,2.1246,2.1229,2.1214,2.1224,2.1214,2.1197,2.1212,2.1199,2.12,2.1216,2.1232,2.1235,2.1237,2.127,2.1276,2.1282,0,0,0,0,0,0,2.1266,2.125,2.1238,2.1257,2.1253,2.124,2.1252,2.1237,2.1238,2.1235,2.1215,2.1213,2.1229,2.1224,2.121,2.1241,2.1219,2.1222,2.1243,2.125,2.1255,2.1255,2.118,0,0,0,0,0,2.1276,2.1282,2.1268,2.1286,2.1284,2.1269,2.1271,2.1258,2.1254,2.1252,2.1244,2.124,2.1244,2.1247,2.1249,2.1272,2.1269,2.1283,2.1288,2.1292,2.1295,2.1306,2.1312,2.1248,2.1248,2.1248,0,0,2.1297,2.1289,2.1294,2.1293,2.1288,2.1295,2.1268,2.1276,2.128,2.1253,2.1265,2.1259,2.1254,2.1272,2.128,2.1268,2.1312,2.1296,2.1299,2.13,2.1309,2.1315,2.1321,2.1249,2.1249,2.1249,0,0,2.1338,2.1333,2.1347,2.1343,2.1337,2.1326,2.133,2.1319,2.1314,2.1326,2.1305,2.1311,2.1318,2.1315,2.1314,2.1355,2.1339,2.1356,2.1383,2.1394,2.1399,2.1403,2.1417,2.1422,2.1359,2.1359,2.1359,0,2.1365,2.1374,2.1356,2.1366,2.1365,2.1341,2.1355,2.1352,2.1348,2.1348,2.1336,2.1344,2.1338,2.1355,2.1365,2.1366,2.1369,2.1357,2.1399,2.1404,2.1407,2.142,2.1426,2.1361,2.1361,2.1361,2.1361,0,2.1407,2.1413,2.1426,2.1421,2.1422,2.1434,2.1418,2.1422,2.141,2.1401,2.1413,2.1406,2.1407,2.141,2.1398,2.1425,2.1418,2.1403,2.138,2.1416,2.1428,2.1432,2.1364,2.1364,2.1363,2.1362,0,0,2.147,2.1455,2.146,2.1457,2.1449,2.1453,2.1464,2.1464,2.1468,2.1465,2.1474,2.148,2.1466,2.1465,2.1453,2.1463,2.1495,2.1447,2.1446,2.1455,2.1523,2.1534,2.154,2.1485,2.1485,2.1486,2.1523,0,2.1508,2.1525,2.1509,2.1529,2.1535,2.1512,2.1521,2.1517,2.1509,2.1513,2.1504,2.1509,2.149,2.149,2.1498,2.1489,2.1508,2.1486,2.1492,2.1492,2.1493,2.1546,2.1558,2.1593,2.1528,2.1529,2.1529,0,2.1555,2.1554,2.1574,2.1564,2.1566,2.1574,2.1573,2.1577,2.1572,2.1566,2.1565,2.155,2.156,2.1539,2.1552,2.1538,2.154,2.1536,2.1537,2.1536,2.1512,2.1546,2.1604,2.1609,2.1536,2.1536,2.1535,0,2.1597,2.1602,2.1614,2.1613,2.1602,2.1608,2.1604,2.1597,2.1599,2.1598,2.1598,2.1599,2.1599,2.1601,2.1586,2.1572,2.1601,2.1579,2.1596,2.1596,2.1602,2.1602,2.166,2.1605,2.1605,2.1605,2.1605,0,2.1641,2.1654,2.1633,2.1641,2.1655,2.1637,2.1652,2.1645,2.164,2.1646,2.1627,2.1633,2.1615,2.1619,2.1608,2.1621,2.1621,2.1616,2.1613,2.1617,2.1618,2.1617,2.1614,2.1606,2.1606,2.1605,2.1605,0,2.1691,2.1677,2.1689,2.1678,2.1675,2.1686,2.1676,2.1683,2.1673,2.1681,2.1682,2.1668,2.1672,2.1658,2.166,2.1653,2.1671,2.1664,2.1673,2.167,2.1687,2.1686,2.1747,2.1754,2.1695,2.1695,2.1696,0,2.1719,2.1729,2.1718,2.1721,2.1717,2.1722,2.1722,2.1706,2.1708,2.1702,2.171,2.1712,2.1713,2.1721,2.1711,2.1712,2.1705,2.1726,2.1705,2.1709,2.1704,2.1704,2.1704,2.173,2.1731,2.1732,2.1732,0,2.1771,2.1764,2.1766,2.1765,2.1767,2.1766,2.1764,2.1767,2.1749,2.1752,2.1756,2.1757,2.1758,2.1761,2.176,2.1756,2.1741,2.1739,2.1743,2.1747,2.1751,2.1748,2.1684,2.1738,2.1737,2.1737,2.1736,2.1736,2.181,2.1818,2.1811,2.1814,2.181,2.1809,2.1814,2.1806,2.1808,2.1808,2.1798,2.1804,2.1799,2.1796,2.1793,2.1798,2.1788,2.1794,2.1795,2.1796,2.1799,2.1751,2.1798,2.1797,2.1797,2.1797,2.1797,0,2.186,2.1855,2.1858,2.1855,2.1857,2.1843,2.184,2.1843,2.1848,2.1844,2.1845,2.1849,2.1852,2.1842,2.1843,2.1849,2.1842,2.1849,2.1848,2.1848,2.1808,2.1804,2.1855,2.1855,2.1855,2.1855,2.1855,2.1855,2.1886,2.1898,2.189,2.1899,2.1894,2.1899,2.1898,2.1897,2.1894,2.1899,2.1901,2.1894,2.1888,2.1889,2.189,2.1887,2.1888,2.1898,2.1893,2.1856,2.185,2.1845,2.1841,2.1899,2.1899,2.1932,2.1932,2.1933]}]]